DW9822 Weather Reports


Display with metric or nautical units.
time (UTC)temp
F
wind
direction
speed
MPH
gust
MPH
rain 1hr
in
rain 24hr
in
rain mn
in
humidity
%
barometer
mb
20260505210521 55 75 0.0 0.0 0.00 0.00 0.01 96 1012.0
20260505210027 55 78 0.0 0.0 0.00 0.00 0.01 96 1012.1
20260505205530 55 78 0.0 0.0 0.00 0.00 0.01 96 1012.2
20260505205029 55 78 0.0 0.0 0.00 0.00 0.01 96 1012.2
20260505204028 55 78 0.0 0.0 0.00 0.00 0.01 96 1012.2
20260505203522 55 78 0.0 0.0 0.00 0.00 0.01 96 1012.2
20260505203026 55 78 0.0 0.0 0.00 0.00 0.01 96 1012.2
20260505202534 55 78 0.0 0.0 0.00 0.00 0.01 96 1012.2
20260505202023 55 78 0.0 0.0 0.00 0.00 0.01 96 1012.2
20260505201521 55 78 0.0 0.0 0.00 0.00 0.01 96 1012.2
20260505201031 55 78 0.0 0.0 0.00 0.00 0.01 96 1012.2
20260505200535 55 78 0.0 0.0 0.00 0.00 0.01 96 1012.2
20260505195534 55 78 0.0 0.0 0.00 0.00 0.01 96 1012.1
20260505195037 55 78 0.0 0.0 0.00 0.00 0.01 96 1012.1
20260505194525 55 78 0.0 0.0 0.00 0.00 0.01 96 1012.0
20260505193046 55 78 0.0 0.0 0.00 0.00 0.01 96 1011.9
20260505192521 55 78 0.0 0.0 0.00 0.00 0.01 96 1011.8
20260505192033 55 78 0.0 0.0 0.00 0.00 0.01 96 1011.8
20260505191543 55 78 0.0 0.0 0.00 0.00 0.01 96 1011.8
20260505191023 55 78 0.0 0.0 0.00 0.00 0.01 96 1011.7
20260505190533 55 78 0.0 0.0 0.00 0.00 0.01 96 1011.6
20260505190023 55 78 0.0 0.0 0.00 0.00 0.01 96 1011.6
20260505185525 55 78 0.0 0.0 0.00 0.00 0.01 96 1011.6
20260505185035 55 88 0.0 0.0 0.00 0.00 0.01 96 1011.6
20260505184526 55 88 0.0 0.0 0.00 0.00 0.01 96 1011.7
20260505184038 55 88 0.0 0.0 0.00 0.00 0.01 96 1011.7
20260505183526 55 88 0.0 0.0 0.00 0.00 0.01 96 1011.7
20260505183025 55 88 0.0 0.0 0.00 0.00 0.01 96 1011.6
20260505182530 55 88 0.0 0.0 0.00 0.00 0.01 96 1011.6
20260505182034 55 88 0.0 0.0 0.00 0.00 0.01 96 1011.6
20260505181540 55 88 0.0 0.0 0.00 0.00 0.01 96 1011.6
20260505181024 55 88 0.0 0.0 0.00 0.00 0.01 96 1011.7
20260505180525 55 88 0.0 0.0 0.00 0.00 0.01 96 1011.7
20260505180037 55 88 0.0 0.0 0.00 0.00 0.01 96 1011.6
20260505175529 55 88 0.0 0.0 0.00 0.00 0.01 95 1011.6
20260505175031 55 88 0.0 0.0 0.00 0.00 0.01 95 1011.6
20260505174521 55 90 0.0 0.0 0.00 0.00 0.01 96 1011.5
20260505174025 55 90 0.0 0.0 0.00 0.00 0.01 96 1011.4
20260505173529 55 90 0.0 0.0 0.00 0.00 0.01 95 1011.6
20260505173030 55 90 0.0 0.0 0.00 0.00 0.01 95 1011.7
20260505172526 55 90 0.0 0.0 0.00 0.00 0.01 95 1011.7
20260505171521 55 89 0.0 0.0 0.00 0.00 0.01 96 1011.7
20260505171029 55 121 0.0 0.0 0.00 0.00 0.01 96 1011.7
20260505170533 55 95 0.0 0.0 0.00 0.00 0.01 96 1011.7
20260505170058 55 92 0.0 0.0 0.00 0.00 0.01 96 1011.6
20260505165522 55 87 0.0 0.0 0.00 0.00 0.01 96 1011.7
20260505165030 55 85 0.0 0.0 0.00 0.00 0.01 96 1011.7
20260505164534 55 84 0.0 0.0 0.00 0.00 0.01 96 1011.7
20260505164021 55 97 0.0 0.0 0.00 0.00 0.01 96 1011.7
20260505163530 55 78 0.0 0.0 0.00 0.00 0.01 96 1011.8
20260505163037 55 84 1.0 0.0 0.00 0.00 0.01 96 1011.8
20260505162528 55 104 1.0 0.0 0.00 0.00 0.01 96 1011.9
20260505162025 55 95 1.0 0.0 0.00 0.00 0.01 96 1011.9
20260505161534 55 96 1.0 0.0 0.00 0.00 0.01 96 1011.9
20260505161054 55 97 0.0 0.0 0.00 0.00 0.01 96 1011.9
20260505153032 55 96 1.0 0.0 0.00 0.00 0.01 96 1012.1
20260505152534 55 118 1.0 0.0 0.00 0.00 0.01 96 1012.1
20260505152045 55 71 0.0 0.0 0.00 0.00 0.01 96 1012.1
20260505151533 55 96 1.0 0.0 0.00 0.00 0.01 96 1012.1
20260505151022 55 69 1.0 0.0 0.00 0.00 0.01 95 1012.2
20260505150522 55 119 2.0 0.0 0.00 0.00 0.01 95 1012.2
20260505125023 55 88 0.0 0.0 0.00 0.00 0.01 94 1012.6
20260505124530 56 61 0.0 0.0 0.00 0.00 0.01 94 1012.6
20260505123532 56 84 1.0 0.0 0.00 0.00 0.01 94 1012.5
20260505123038 56 90 1.0 0.0 0.00 0.00 0.01 94 1012.6
20260505122540 56 94 1.0 0.0 0.00 0.00 0.01 94 1012.5
20260505122032 56 115 0.0 0.0 0.00 0.00 0.01 95 1012.4
20260505121521 56 101 0.0 0.0 0.00 0.00 0.01 95 1012.5
20260505121031 56 101 0.0 0.0 0.00 0.00 0.01 95 1012.6
20260505120524 55 101 0.0 0.0 0.00 0.00 0.01 95 1012.6
20260505120025 55 101 0.0 0.0 0.00 0.00 0.01 95 1012.6
20260505115032 55 92 0.0 0.0 0.00 0.00 0.01 94 1012.7
20260505114519 55 113 0.0 0.0 0.00 0.00 0.01 94 1012.8
20260505114029 56 113 0.0 0.0 0.00 0.00 0.01 94 1012.8
20260505113031 56 103 0.0 0.0 0.00 0.00 0.01 94 1012.8
20260505112518 56 103 0.0 0.0 0.00 0.00 0.01 94 1012.8
20260505112036 56 103 0.0 0.0 0.00 0.00 0.01 94 1012.7
20260505111522 56 103 0.0 0.0 0.00 0.00 0.01 94 1012.8
20260505111035 56 103 0.0 0.0 0.00 0.00 0.01 93 1012.8
20260505110527 56 103 0.0 0.0 0.00 0.00 0.01 94 1012.8
20260505102032 56 103 0.0 0.0 0.00 0.00 0.01 93 1012.8
20260505101537 56 103 0.0 0.0 0.00 0.00 0.01 91 1012.7
20260505101022 56 103 0.0 0.0 0.00 0.00 0.01 93 1012.8
20260505100019 56 103 0.0 0.0 0.00 0.00 0.01 93 1012.7
20260505095534 56 103 0.0 0.0 0.00 0.00 0.01 93 1012.8
20260505095038 56 103 0.0 0.0 0.00 0.00 0.01 94 1012.7
20260505094523 56 103 0.0 0.0 0.00 0.00 0.01 94 1012.6
20260505093523 55 103 0.0 0.0 0.00 0.00 0.01 93 1012.5
20260505093033 55 103 0.0 0.0 0.00 0.00 0.01 93 1012.6
20260505092525 55 103 0.0 0.0 0.00 0.00 0.01 93 1012.7
20260505092037 55 103 0.0 0.0 0.00 0.00 0.01 93 1012.7
20260505091523 55 103 0.0 0.0 0.00 0.00 0.01 93 1012.6
20260505091020 55 103 0.0 0.0 0.00 0.00 0.01 93 1012.5
20260505090529 55 103 0.0 0.0 0.00 0.00 0.01 93 1012.4
20260505090033 55 103 0.0 0.0 0.00 0.00 0.01 93 1012.3
20260505085541 55 103 0.0 0.0 0.00 0.00 0.01 93 1012.4
20260505085018 55 103 0.0 0.0 0.00 0.00 0.01 93 1012.5
20260505084523 54 103 0.0 0.0 0.00 0.00 0.01 93 1012.5
20260505084022 54 103 0.0 0.0 0.00 0.00 0.01 93 1012.4
20260505083038 54 103 0.0 0.0 0.00 0.00 0.01 94 1012.4
20260505082528 54 103 0.0 0.0 0.00 0.00 0.01 93 1012.5
20260505082025 54 103 0.0 0.0 0.00 0.00 0.01 94 1012.5
20260505081531 54 103 0.0 0.0 0.00 0.00 0.01 93 1012.5
20260505081026 54 103 0.0 0.0 0.00 0.00 0.01 94 1012.4
20260505080537 53 103 0.0 0.0 0.00 0.00 0.01 94 1012.4
20260505080021 53 121 0.0 0.0 0.00 0.00 0.01 94 1012.4
20260505075528 53 121 0.0 0.0 0.00 0.00 0.01 94 1012.3
20260505075111 53 121 1.0 0.0 0.00 0.00 0.01 94 1012.2
20260505074537 53 75 0.0 0.0 0.00 0.00 0.01 93 1012.2
20260505074036 53 73 0.0 0.0 0.00 0.00 0.01 93 1012.2
20260505073527 53 73 0.0 0.0 0.00 0.00 0.01 93 1012.2
20260505073033 53 73 0.0 0.0 0.00 0.00 0.01 92 1012.3
20260505072534 53 73 0.0 0.0 0.00 0.00 0.01 92 1012.3
20260505071522 54 73 0.0 0.0 0.00 0.00 0.01 91 1012.4
20260505071022 54 73 0.0 0.0 0.00 0.00 0.01 90 1012.5
20260505070531 54 89 0.0 0.0 0.00 0.00 0.01 92 1012.5
20260505070035 54 89 0.0 0.0 0.00 0.00 0.01 92 1012.6
20260505065527 54 89 0.0 0.0 0.00 0.00 0.01 92 1012.5
20260505065032 54 89 0.0 0.0 0.00 0.00 0.01 91 1012.5
20260505064533 54 89 0.0 0.0 0.00 0.00 0.01 91 1012.3
20260505064033 55 89 1.0 0.0 0.00 0.00 0.01 91 1012.2
20260505062530 55 89 0.0 0.0 0.00 0.00 0.01 89 1012.4
20260505061531 55 89 0.0 0.0 0.00 0.00 0.00 87 1012.3
20260505061024 55 89 0.0 0.0 0.00 0.00 0.00 86 1012.3
20260505060537 56 89 0.0 0.0 0.00 0.00 0.00 86 1012.2
20260505060029 56 89 0.0 0.0 0.00 0.00 0.00 86 1012.0
20260505055535 56 89 0.0 0.0 0.00 0.00 0.00 85 1012.0
20260505054519 56 89 0.0 0.0 0.00 0.00 0.00 84 1012.0
20260505054036 56 89 0.0 0.0 0.00 0.00 0.00 83 1012.0
20260505053537 56 89 0.0 0.0 0.00 0.00 0.00 82 1012.0
20260505053026 56 89 0.0 0.0 0.00 0.00 0.00 81 1011.8
20260505052533 56 89 0.0 0.0 0.00 0.00 0.00 82 1011.8
20260505052058 56 89 0.0 0.0 0.00 0.00 0.00 82 1011.8
20260505051540 56 88 0.0 0.0 0.00 0.00 0.00 84 1011.8
20260505051028 56 88 0.0 0.0 0.00 0.00 0.00 83 1011.6
20260505041531 55 271 0.0 0.0 0.00 0.00 0.00 81 1011.5
20260505041030 55 271 0.0 0.0 0.00 0.00 0.00 80 1011.5
20260505040023 55 271 0.0 0.0 0.00 0.00 0.00 79 1011.5
20260505035537 56 271 0.0 0.0 0.00 0.00 0.00 77 1011.4
20260505035033 56 271 0.0 0.0 0.00 0.00 0.00 77 1011.5
20260505034026 56 271 0.0 0.0 0.00 0.00 0.00 76 1011.5
20260505033534 56 271 0.0 0.0 0.00 0.00 0.00 76 1011.6
20260505033023 56 271 0.0 0.0 0.00 0.00 0.00 74 1011.7
20260505032523 57 271 0.0 0.0 0.00 0.00 0.00 73 1011.7
20260505032038 57 271 0.0 0.0 0.00 0.00 0.00 75 1011.7
20260505031527 57 271 0.0 0.0 0.00 0.00 0.00 73 1011.7
20260505031032 57 271 0.0 0.0 0.00 0.00 0.00 73 1011.8
20260505030526 57 271 0.0 0.0 0.00 0.00 0.00 72 1011.8
20260505030024 57 271 0.0 0.0 0.00 0.00 0.00 71 1011.9
20260505025530 57 271 0.0 0.0 0.00 0.00 0.00 71 1011.9
20260505025058 57 271 0.0 0.0 0.00 0.00 0.00 71 1011.9
20260505024518 57 271 0.0 0.0 0.00 0.00 0.00 72 1012.0
20260505023530 57 271 0.0 0.0 0.00 0.00 0.00 72 1012.0
20260505023021 57 271 0.0 0.0 0.00 0.00 0.00 72 1012.1
20260505022518 57 286 0.0 0.0 0.00 0.00 0.00 72 1012.1
20260505022037 57 286 1.0 0.0 0.00 0.00 0.00 71 1012.2
20260505021533 57 286 1.0 0.0 0.00 0.00 0.00 72 1012.3
20260505021030 57 286 1.0 0.0 0.00 0.00 0.00 71 1012.4
20260505020523 58 286 1.0 0.0 0.00 0.00 0.00 72 1012.4
20260505020037 58 263 1.0 0.0 0.00 0.00 0.00 71 1012.5
20260505015036 58 298 1.0 0.0 0.00 0.00 0.00 73 1012.4
20260505014025 57 290 1.0 0.0 0.00 0.00 0.00 76 1012.8
20260505013537 57 193 2.0 0.0 0.00 0.00 0.00 75 1013.0
20260505012537 56 273 1.0 0.0 0.00 0.00 0.00 77 1013.1
20260505012025 55 279 0.0 0.0 0.00 0.00 0.00 78 1013.1
20260505011527 55 292 0.0 0.0 0.00 0.00 0.00 80 1013.1
20260505011036 55 294 0.0 0.0 0.00 0.00 0.00 80 1013.2
20260505010527 55 294 0.0 0.0 0.00 0.00 0.00 80 1013.2
20260505010032 55 294 0.0 0.0 0.00 0.00 0.00 82 1013.2
20260505004030 54 294 0.0 0.0 0.00 0.00 0.00 82 1013.6
20260505003520 54 294 0.0 0.0 0.00 0.00 0.00 83 1013.7
20260505002525 53 294 0.0 0.0 0.00 0.00 0.00 84 1013.8
20260505002030 53 294 0.0 0.0 0.00 0.00 0.00 84 1013.8
20260505001521 53 294 0.0 0.0 0.00 0.00 0.00 83 1013.9
20260505001022 53 294 0.0 0.0 0.00 0.00 0.00 83 1014.0
20260505000529 53 294 0.0 0.0 0.00 0.00 0.00 82 1014.2
20260505000038 53 294 0.0 0.0 0.00 0.00 0.00 82 1014.2
20260504235604 53 294 0.0 0.0 0.00 0.00 0.00 82 1014.2
20260504235034 53 294 0.0 0.0 0.00 0.00 0.00 82 1014.3
20260504234520 53 294 0.0 0.0 0.00 0.00 0.00 82 1014.4
20260504234026 53 294 0.0 0.0 0.00 0.00 0.00 81 1014.4
20260504233527 53 294 0.0 0.0 0.00 0.00 0.00 81 1014.5
20260504233022 53 294 0.0 0.0 0.00 0.00 0.00 81 1014.5
20260504232526 53 294 0.0 0.0 0.00 0.00 0.00 81 1014.6
20260504230021 54 294 0.0 0.0 0.00 0.00 0.00 80 1014.8
20260504225020 54 294 0.0 0.0 0.00 0.00 0.00 79 1014.8
20260504224036 54 294 0.0 0.0 0.00 0.00 0.00 79 1014.9
20260504223525 54 294 0.0 0.0 0.00 0.00 0.00 78 1015.0
20260504223028 54 294 0.0 0.0 0.00 0.00 0.00 77 1015.0
20260504222534 55 294 0.0 0.0 0.00 0.00 0.00 77 1015.1
20260504222026 55 294 0.0 0.0 0.00 0.00 0.00 77 1015.1
20260504221533 55 294 0.0 0.0 0.00 0.00 0.00 76 1015.1
20260504221020 55 294 0.0 0.0 0.00 0.00 0.00 75 1015.2
20260504220523 55 294 0.0 0.0 0.00 0.00 0.00 74 1015.2
20260504220052 55 294 0.0 0.0 0.00 0.00 0.00 73 1015.2
20260504215532 55 294 0.0 0.0 0.00 0.00 0.00 72 1015.3
20260504215027 56 294 0.0 0.0 0.00 0.00 0.00 72 1015.3
20260504214533 56 294 0.0 0.0 0.00 0.00 0.00 70 1015.4
20260504214021 56 294 0.0 0.0 0.00 0.00 0.00 69 1015.5
20260504213534 56 294 0.0 0.0 0.00 0.00 0.00 69 1015.5
20260504213026 56 294 0.0 0.0 0.00 0.00 0.00 69 1015.6
20260504212533 57 294 0.0 0.0 0.00 0.00 0.00 67 1015.6
20260504212019 57 294 0.0 0.0 0.00 0.00 0.00 67 1015.6
20260504211525 57 294 0.0 0.0 0.00 0.00 0.00 67 1015.6